Location: ??????????
(44.2167°N, 135.5333°E)
Time: 15:17:05
(UTC+00:00)

SL-8 R/B - Pass Details

Date: 15 June 2025
Orbit: 648 x 657 km, 48.4° (Epoch: 15 July)

Event Time Altitude Azimuth Distance (km) Brightness Sun altitude
Rises 12:52:26 0° 292° (WNW) 2,983 7.9 -16.6°
Reaches altitude 10° 12:54:47 10° 293° (WNW) 2,068 7.0 -16.8°
Maximum altitude 12:59:34 81° 21° (NNE) 667 3.7 -17.2°
Enters shadow 13:02:32 23° 107° (ESE) 1,387 4.9 -17.4°
